Location: Bogis-Bossey
(46.3500°N, 6.1667°E)
Time: 18:30:35
(UTC+00:00)

ASTEX 1 - Pass Details

Date: 17 August 2022
Orbit: 719 x 743 km, 92.7° (Epoch: 30 September)

Event Time Altitude Azimuth Distance (km) Brightness Sun altitude
Rises 20:18:57 0° 2° (N) 3,151 7.2 -15.4°
Reaches altitude 10° 20:21:15 10° 360° (N) 2,223 6.4 -15.7°
Maximum altitude 20:26:06 65° 280° (W) 796 3.8 -16.3°
Drops below altitude 10° 20:30:55 10° 199° (SSW) 2,200 5.6 -17.0°
Enters shadow 20:32:39 - 197° (SSW) 2,895 6.2 -17.2°
